New Bedford, MA

11:15 PM EDT on June 27, 2017 (GMT -0400)
New Bedford Regional

Weather History for KEWB - May, 2013

Change the Weather History Date:

Saturday, May 11, 2013

  Actual Average Record
Temperature  
Mean Temperature 60 °F -  
Max Temperature 66 °F 65 °F 92 °F (1993)
Min Temperature 55 °F 48 °F 37 °F (1999)
Degree Days  
Heating Degree Days 4    
Growing Degree Days 10 (Base 50)    
Moisture  
Dew Point 57 °F    
Average Humidity 93    
Maximum Humidity 100    
Minimum Humidity 78    
Precipitation  
Precipitation 0.91 in - - ()
Sea Level Pressure  
Sea Level Pressure 29.85 in    
Wind  
Wind Speed 7 mph (SSW)    
Max Wind Speed 18 mph    
Max Gust Speed 34 mph    
Visibility 6 miles    
Events Fog , Rain , Thunderstorm    
Averages and records for this station are not official NWS values.
T = Trace of Precipitation, MM = Missing Value Source: NWS Daily Summary

Daily Weather History Graph

Daily Weather History Graph

Search for Another Location

Airport or City:

Trip Planner

Search our weather history database for the weather conditions in past years. The results will help you decide how hot, cold, wet, or windy it might be!

Date:

Astronomy

May. 11, 2013 Rise Set
Actual Time 5:28 AM EDT 7:52 PM EDT
Civil Twilight 4:56 AM EDT 8:24 PM EDT
Nautical Twilight 4:18 AM EDT 9:03 PM EDT
Astronomical Twilight 3:34 AM EDT 9:46 PM EDT
Moon 6:33 AM EDT (5/11) 9:31 PM EDT (5/11)
Length of Visible Light 15h 27m
Length of Day
14h 24m
Waxing Crescent, 3% of the Moon is Illuminated
May 11
Waxing Crescent
May 18
First Quarter
May 25
Full
May 31
Last Quarter
Jun 8
New

Hourly Weather History & Observations

Time (EDT) Temp. Dew Point Humidity Pressure Visibility Wind Dir Wind Speed Gust Speed Precip Events Conditions
12:53 AM 55.0 °F 53.1 °F 93% 29.95 in 6.0 mi SSW 5.8 mph - N/A   Clear
1:21 AM 55.4 °F 53.6 °F 94% 29.94 in 4.0 mi SSW 4.6 mph - N/A   Scattered Clouds
1:30 AM 55.4 °F 53.6 °F 94% 29.94 in 4.0 mi SSW 3.5 mph - N/A   Mostly Cloudy
1:48 AM 57.2 °F 55.4 °F 94% 29.93 in 1.8 mi SSW 4.6 mph - N/A   Overcast
1:53 AM 57.0 °F 55.9 °F 96% 29.93 in 1.0 mi SSW 4.6 mph - N/A   Overcast
2:01 AM 57.2 °F 55.4 °F 94% 29.92 in 0.5 mi SSW 5.8 mph - N/A Fog Fog
2:05 AM 57.2 °F 57.2 °F 100% 29.92 in 0.2 mi SSW 5.8 mph - N/A Fog Fog
2:25 AM 57.2 °F 57.2 °F 100% 29.91 in 0.2 mi South 8.1 mph - N/A Fog Fog
2:33 AM 57.2 °F 57.2 °F 100% 29.91 in 0.5 mi SSW 6.9 mph - N/A Fog Fog
2:44 AM 57.2 °F 57.2 °F 100% 29.91 in 1.8 mi South 9.2 mph - N/A   Overcast
2:51 AM 57.2 °F 57.2 °F 100% 29.91 in 2.0 mi South 8.1 mph - N/A   Overcast
2:53 AM 57.9 °F 57.0 °F 97% 29.91 in 2.0 mi South 6.9 mph - N/A   Overcast
3:07 AM 57.2 °F 55.4 °F 94% 29.90 in 2.5 mi South 5.8 mph - N/A   Overcast
3:18 AM 57.2 °F 55.4 °F 94% 29.90 in 3.0 mi SSE 4.6 mph - N/A   Overcast
3:28 AM 57.2 °F 55.4 °F 94% 29.89 in 2.5 mi SSE 5.8 mph - N/A   Overcast
3:53 AM 57.0 °F 55.9 °F 96% 29.89 in 2.5 mi South 5.8 mph - N/A   Overcast
4:00 AM 57.2 °F 55.4 °F 94% 29.88 in 3.0 mi SSE 8.1 mph - N/A   Overcast
4:20 AM 55.4 °F 55.4 °F 100% 29.88 in 2.0 mi SSE 5.8 mph - N/A   Overcast
4:35 AM 55.4 °F 53.6 °F 94% 29.87 in 4.0 mi SSE 5.8 mph - N/A   Overcast
4:53 AM 55.0 °F 54.0 °F 96% 29.87 in 6.0 mi South 4.6 mph - N/A   Overcast
5:51 AM 57.2 °F 55.4 °F 94% 29.88 in 10.0 mi SW 9.2 mph - N/A   Overcast
5:53 AM 57.0 °F 55.0 °F 93% 29.88 in 10.0 mi SW 6.9 mph 16.1 mph N/A   Mostly Cloudy
6:05 AM 57.2 °F 55.4 °F 94% 29.86 in 10.0 mi SSW 4.6 mph - N/A   Mostly Cloudy
6:53 AM 57.9 °F 55.9 °F 93% 29.87 in 9.0 mi South 4.6 mph - 0.00 in Rain Light Rain
7:53 AM 57.9 °F 55.9 °F 93% 29.86 in 8.0 mi SSW 9.2 mph - 0.01 in   Overcast
8:53 AM 62.1 °F 59.0 °F 90% 29.85 in 10.0 mi SSW 11.5 mph - N/A   Partly Cloudy
9:53 AM 63.0 °F 57.9 °F 84% 29.85 in 10.0 mi SSW 13.8 mph 21.9 mph 0.00 in   Overcast
10:53 AM 63.0 °F 57.0 °F 81% 29.86 in 10.0 mi SSW 18.4 mph 25.3 mph 0.00 in   Overcast
11:53 AM 66.0 °F 59.0 °F 78% 29.84 in 10.0 mi SW 17.3 mph 34.5 mph N/A   Mostly Cloudy
12:53 PM 64.0 °F 57.0 °F 78% 29.84 in 10.0 mi SW 16.1 mph 24.2 mph 0.00 in Rain Light Rain
1:53 PM 63.0 °F 57.0 °F 81% 29.83 in 10.0 mi SW 13.8 mph 24.2 mph 0.00 in   Overcast
2:53 PM 60.1 °F 57.9 °F 93% 29.82 in 8.0 mi SSW 15.0 mph 25.3 mph 0.01 in Rain Light Rain
3:53 PM 62.1 °F 59.0 °F 90% 29.79 in 8.0 mi South 10.4 mph - 0.01 in Rain Light Rain
4:53 PM 62.1 °F 59.0 °F 90% 29.78 in 10.0 mi South 12.7 mph 21.9 mph 0.01 in   Mostly Cloudy
5:53 PM 62.1 °F 59.0 °F 90% 29.78 in 10.0 mi South 11.5 mph 20.7 mph 0.00 in   Overcast
6:39 PM 60.8 °F 59.0 °F 94% 29.79 in 10.0 mi SSW 8.1 mph - N/A   Overcast
6:53 PM 61.0 °F 59.0 °F 93% 29.79 in 10.0 mi SW 6.9 mph - 0.00 in Rain Light Rain
7:09 PM 60.8 °F 59.0 °F 94% 29.79 in 9.0 mi South 11.5 mph 18.4 mph 0.00 in Rain Light Rain
7:51 PM 59.0 °F 57.2 °F 94% 29.76 in 1.8 mi WSW 4.6 mph - 0.21 in Rain Heavy Rain
7:53 PM 59.0 °F 57.9 °F 96% 29.77 in 2.0 mi WSW 4.6 mph - 0.21 in Rain Light Rain
8:53 PM 61.0 °F 59.0 °F 93% 29.76 in 9.0 mi South 10.4 mph - 0.57 in Rain Light Rain
9:27 PM 60.8 °F 59.0 °F 94% 29.75 in 8.0 mi South 8.1 mph - 0.00 in   Overcast
9:38 PM 60.8 °F 60.8 °F 100% 29.75 in 8.0 mi South 11.5 mph - 0.00 in   Overcast
9:53 PM 60.8 °F 60.8 °F 100% 29.75 in 8.0 mi SSW 12.7 mph 20.7 mph N/A Rain Light Rain
10:03 PM 60.8 °F 60.8 °F 100% 29.75 in 10.0 mi SSW 9.2 mph 18.4 mph 0.00 in Rain , Thunderstorm Light Rain
10:24 PM 62.6 °F 60.8 °F 94% 29.74 in 9.0 mi SSW 11.5 mph - 0.01 in Rain Light Rain
10:53 PM 62.1 °F 60.1 °F 93% 29.73 in 10.0 mi SSW 11.5 mph - 0.05 in Rain Light Rain
11:53 PM 61.0 °F 59.0 °F 93% 29.72 in 10.0 mi SW 10.4 mph 18.4 mph 0.04 in   Overcast